Regional Weather Roundup
Issued by NWS Sioux Falls, SD

Home | Current Version | Previous Version | Graphics & Text | Print | Product List | Glossary On
Versions: 1 2 3 4 5 6 7 8 9 10 11 12 13 14 15 16 17 18 19 20 21 22 23 24 25 26 27 28 29 30 31 32 33 34 35 36 37 38 39 40 41 42 43 44 45 46 47 48 49 50
000
ASUS43 KFSD 121702
RWRFSD

WEATHER ROUNDUP FOR SE SOUTH DAKOTA/SW MINNESOTA/NW IOWA
NATIONAL WEATHER SERVICE SIOUX FALLS SD
1200 PM CDT SAT JUL 12 2014

NOTE: "FAIR" INDICATES FEW OR NO CLOUDS BELOW 12,000 FEET WITH NO
SIGNIFICANT WEATHER AND OR OBSTRUCTIONS TO VISIBILITY.


SDZ038>040-050-052>070-121800-
SOUTHEAST SOUTH DAKOTA

CITY           SKY/WX    TMP DP  RH WIND       PRES   REMARKS
CHAMBERLAIN    CLOUDY    71  65  79 NE9       30.09R
HURON          LGT RAIN  70  63  78 NE10      30.06F
MADISON        PTSUNNY   68  68 100 N13G18    30.09R
MITCHELL       CLOUDY    75  67  76 N12       30.08S
SIOUX FALLS    LGT RAIN  75  66  73 W3        30.06R
WINNER         CLOUDY    76  66  71 NE6       30.09S
YANKTON        CLOUDY    70  66  88 CALM      30.07S
$$

MNZ071-072-080-081-089-090-097-098-121800-
SOUTHWEST MINNESOTA

CITY           SKY/WX    TMP DP  RH WIND       PRES   REMARKS
FAIRMONT       CLOUDY    68  63  83 SW10      30.05R
JACKSON        PTSUNNY   72  68  88 SW9       30.07R
LUVERNE        CLOUDY    77  68  73 SW9       30.07R
MARSHALL       CLOUDY    66  63  88 NW14      30.05S
MONTEVIDEO     LGT RAIN  66  64  94 NW5       30.06F
PIPESTONE      CLOUDY    70  63  78 NE15      30.09R
REDWOOD FALLS  LGT RAIN  68  66  93 W5        30.04R
TRACY          CLOUDY    69  66  89 CALM      30.07R
WINDOM         PTSUNNY   75  64  69 NW12      30.04F
WORTHINGTON    PTSUNNY   75  70  83 SW7       30.08R
$$

IAZ001>003-012>014-020>022-031-032-NEZ013-014-SDZ071-121800-
NORTHWEST IOWA

CITY           SKY/WX    TMP DP  RH WIND       PRES   REMARKS
CHEROKEE       DRIZZLE   70  69  97 N9        30.04S
DENISON        CLOUDY    77  72  83 S6        29.98F
ESTHERVILLE    RAIN      69  66  90 W7        30.08R FOG
LE MARS        RAIN      70  68  94 N8        30.06R
ORANGE CITY    LGT RAIN  70  66  88 N8        30.07F
SHELDON        LGT RAIN  68  66  94 W5        30.07R
SIOUX CITY     CLOUDY    73  69  87 N9        30.03R
SPENCER        HVY RAIN  68  66  93 NW8       30.08R FOG
STORM LAKE     LGT RAIN  73  73 100 N12       30.06R
$$

ABBREVIATIONS USED IN REMARKS
   TC - TEMPERATURE IN CELSIUS
  WCI - WIND CHILL INDEX
   HX - HEAT INDEX
  VSB - VISIBILITY




USA.gov is the U.S. government's official web portal to all federal, state and local government web resources and services.